| time (UTC) | temp C | wind direction | speed KPH | gust KPH | rain 1hr cm | rain 24hr cm | rain mn cm | humidity % | barometer mb |
| 20260502220542 | 10 | 0 | 0.0 | 0.0 | 0.00 | 0.33 | 0.33 | 96 | 1011.0 |
| 20260502215644 | 10 | 0 | 0.0 | 0.0 | 0.00 | 0.33 | 0.33 | 96 | 1011.0 |
| 20260502213643 | 10 | 0 | 0.0 | 0.0 | 0.03 | 0.33 | 0.33 | 96 | 1011.1 |
| 20260502212640 | 10 | 0 | 0.0 | 0.0 | 0.03 | 0.33 | 0.33 | 96 | 1011.2 |
| 20260502211642 | 10 | 0 | 0.0 | 0.0 | 0.03 | 0.33 | 0.33 | 96 | 1011.2 |
| 20260502210640 | 10 | 0 | 0.0 | 0.0 | 0.03 | 0.33 | 0.33 | 96 | 1011.3 |
| 20260502205639 | 10 | 0 | 0.0 | 0.0 | 0.03 | 0.33 | 0.33 | 96 | 1011.3 |
| 20260502204639 | 10 | 0 | 0.0 | 0.0 | 0.00 | 0.33 | 0.33 | 96 | 1011.3 |
| 20260502203639 | 10 | 0 | 0.0 | 0.0 | 0.00 | 0.33 | 0.33 | 96 | 1011.4 |
| 20260502201636 | 10 | 0 | 0.0 | 0.0 | 0.00 | 0.33 | 0.33 | 95 | 1011.4 |
| 20260502200638 | 10 | 0 | 0.0 | 0.0 | 0.00 | 0.33 | 0.33 | 95 | 1011.3 |
| 20260502195638 | 10 | 0 | 0.0 | 0.0 | 0.03 | 0.33 | 0.33 | 95 | 1011.3 |
| 20260502193634 | 11 | 0 | 0.0 | 0.0 | 0.05 | 0.33 | 0.33 | 95 | 1011.3 |
| 20260502192634 | 11 | 0 | 0.0 | 0.0 | 0.05 | 0.33 | 0.33 | 95 | 1011.3 |
| 20260502191634 | 11 | 0 | 0.0 | 0.0 | 0.08 | 0.33 | 0.33 | 95 | 1011.4 |
| 20260502190633 | 11 | 0 | 0.0 | 0.0 | 0.10 | 0.33 | 0.33 | 94 | 1011.5 |
| 20260502185633 | 11 | 0 | 0.0 | 0.0 | 0.10 | 0.30 | 0.30 | 94 | 1011.6 |
| 20260502184632 | 11 | 0 | 0.0 | 0.0 | 0.10 | 0.30 | 0.30 | 94 | 1011.6 |
| 20260502182631 | 11 | 0 | 0.0 | 0.0 | 0.13 | 0.25 | 0.25 | 93 | 1011.9 |
| 20260502181633 | 11 | 0 | 0.0 | 0.0 | 0.10 | 0.23 | 0.23 | 93 | 1012.0 |
| 20260502180630 | 11 | 0 | 0.0 | 0.0 | 0.10 | 0.23 | 0.23 | 93 | 1012.1 |
| 20260502163625 | 12 | 0 | 0.0 | 0.0 | 0.05 | 0.05 | 0.05 | 85 | 1012.6 |
| 20260502161623 | 13 | 0 | 0.0 | 0.0 | 0.05 | 0.05 | 0.05 | 83 | 1012.6 |
| 20260502160623 | 13 | 0 | 0.0 | 0.0 | 0.05 | 0.05 | 0.05 | 81 | 1012.6 |
| 20260502150621 | 16 | 0 | 0.0 | 0.0 | 0.00 | 0.00 | 0.00 | 65 | 1013.0 |
| 20260502130614 | 16 | 0 | 0.0 | 0.0 | 0.00 | 0.00 | 0.00 | 67 | 1014.4 |
| 20260502123613 | 16 | 0 | 0.0 | 0.0 | 0.00 | 0.05 | 0.00 | 65 | 1014.5 |
| 20260502122611 | 17 | 0 | 0.0 | 0.0 | 0.00 | 0.05 | 0.00 | 67 | 1014.6 |
| 20260502121611 | 16 | 0 | 0.0 | 0.0 | 0.00 | 0.05 | 0.00 | 69 | 1014.8 |
| 20260502120617 | 16 | 0 | 0.0 | 0.0 | 0.00 | 0.05 | 0.00 | 69 | 1015.0 |
| 20260502115611 | 15 | 0 | 0.0 | 0.0 | 0.00 | 0.05 | 0.00 | 70 | 1015.2 |
| 20260502114610 | 15 | 0 | 0.0 | 0.0 | 0.00 | 0.05 | 0.00 | 70 | 1015.3 |
| 20260502113608 | 15 | 0 | 0.0 | 0.0 | 0.00 | 0.05 | 0.00 | 71 | 1015.4 |
| 20260502112607 | 15 | 0 | 0.0 | 0.0 | 0.00 | 0.05 | 0.00 | 71 | 1015.5 |
| 20260502111607 | 15 | 0 | 0.0 | 0.0 | 0.00 | 0.05 | 0.00 | 70 | 1015.7 |
| 20260502110608 | 15 | 0 | 0.0 | 0.0 | 0.00 | 0.05 | 0.00 | 71 | 1015.9 |
| 20260502105606 | 15 | 0 | 0.0 | 0.0 | 0.00 | 0.05 | 0.00 | 70 | 1015.9 |
| 20260502104606 | 15 | 0 | 0.0 | 0.0 | 0.00 | 0.05 | 0.00 | 69 | 1016.1 |
| 20260502103605 | 15 | 0 | 0.0 | 0.0 | 0.00 | 0.05 | 0.00 | 74 | 1016.0 |
| 20260502102605 | 15 | 0 | 0.0 | 0.0 | 0.00 | 0.05 | 0.00 | 77 | 1016.0 |
| 20260502101604 | 14 | 0 | 0.0 | 0.0 | 0.00 | 0.05 | 0.00 | 77 | 1016.0 |
| 20260502090601 | 13 | 0 | 0.0 | 0.0 | 0.00 | 0.05 | 0.00 | 83 | 1016.5 |
| 20260502065554 | 8 | 0 | 0.0 | 0.0 | 0.00 | 0.05 | 0.00 | 100 | 1017.1 |
| 20260502064551 | 8 | 0 | 0.0 | 0.0 | 0.00 | 0.05 | 0.00 | 100 | 1017.1 |
| 20260502063552 | 7 | 0 | 0.0 | 0.0 | 0.00 | 0.05 | 0.00 | 100 | 1017.2 |
| 20260502062551 | 6 | 0 | 0.0 | 0.0 | 0.00 | 0.05 | 0.00 | 100 | 1017.3 |
| 20260502061551 | 6 | 0 | 0.0 | 0.0 | 0.00 | 0.05 | 0.00 | 100 | 1017.2 |
| 20260502060550 | 5 | 0 | 0.0 | 0.0 | 0.00 | 0.05 | 0.00 | 100 | 1017.1 |
| 20260502055548 | 5 | 0 | 0.0 | 0.0 | 0.00 | 0.05 | 0.00 | 100 | 1017.0 |
| 20260502054550 | 5 | 0 | 0.0 | 0.0 | 0.00 | 0.05 | 0.00 | 100 | 1017.1 |
| 20260502053549 | 5 | 0 | 0.0 | 0.0 | 0.00 | 0.05 | 0.00 | 100 | 1017.2 |
| 20260502052548 | 4 | 0 | 0.0 | 0.0 | 0.00 | 0.05 | 0.00 | 100 | 1017.2 |
| 20260502051546 | 3 | 0 | 0.0 | 0.0 | 0.00 | 0.05 | 0.00 | 100 | 1017.2 |
| 20260502050546 | 3 | 0 | 0.0 | 0.0 | 0.00 | 0.05 | 0.00 | 97 | 1017.1 |
| 20260502045546 | 3 | 0 | 0.0 | 0.0 | 0.00 | 0.05 | 0.00 | 97 | 1017.2 |
| 20260502043543 | 3 | 0 | 0.0 | 0.0 | 0.00 | 0.05 | 0.00 | 97 | 1017.2 |
| 20260502042543 | 3 | 0 | 0.0 | 0.0 | 0.00 | 0.05 | 0.00 | 97 | 1017.3 |
| 20260502041545 | 3 | 0 | 0.0 | 0.0 | 0.00 | 0.05 | 0.00 | 97 | 1017.3 |
| 20260502040542 | 4 | 0 | 0.0 | 0.0 | 0.00 | 0.05 | 0.00 | 97 | 1017.4 |
| 20260501224608 | 8 | 0 | 0.0 | 0.0 | 0.00 | 0.05 | 0.05 | 95 | 1019.9 |
| 20260501223607 | 8 | 0 | 0.0 | 0.0 | 0.00 | 0.05 | 0.05 | 95 | 1020.0 |
| 20260501222606 | 7 | 0 | 0.0 | 0.0 | 0.00 | 0.05 | 0.05 | 95 | 1020.0 |
| 20260501221605 | 7 | 0 | 0.0 | 0.0 | 0.00 | 0.05 | 0.05 | 95 | 1019.9 |